Location: Haulchin
(50.3172°N, 3.4360°E)
Time: 15:09:34
(UTC+00:00)

IDEFIX/ARIANE 42P - Pass Details

Date: 23 May 2024
Orbit: 783 x 799 km, 98.5° (Epoch: 19 June)

Event Time Altitude Azimuth Distance (km) Brightness Sun altitude
Rises 02:57:05 0° 7° (N) 3,318 6.7 -7.1°
Reaches altitude 10° 02:59:43 10° 356° (N) 2,385 5.7 -6.8°
Maximum altitude 03:04:03 27° 300° (WNW) 1,506 3.9 -6.3°
Drops below altitude 10° 03:08:23 10° 244° (WSW) 2,373 4.4 -5.8°
Enters shadow 03:09:19 - 239° (WSW) 2,692 4.7 -5.7°
